| time (UTC) | temp F | wind direction | speed MPH | gust MPH | rain 1hr in | rain 24hr in | rain mn in | humidity % | barometer mb |
| 20260507202703 | 61 | 194 | 3.0 | 7.0 | 0.00 | 0.48 | 0.23 | 76 | 1005.8 |
| 20260507201803 | 62 | 175 | 4.0 | 8.0 | 0.00 | 0.48 | 0.23 | 76 | 1005.5 |
| 20260507200903 | 62 | 175 | 4.0 | 9.0 | 0.00 | 0.48 | 0.23 | 76 | 1005.6 |
| 20260507200003 | 60 | 207 | 5.0 | 11.0 | 0.00 | 0.48 | 0.23 | 79 | 1005.8 |
| 20260507195832 | 60 | 212 | 4.0 | 11.0 | 0.00 | 0.48 | 0.23 | 78 | 1005.7 |
| 20260507194503 | 60 | 195 | 5.0 | 10.0 | 0.00 | 0.48 | 0.23 | 76 | 1005.9 |
| 20260507193603 | 59 | 216 | 6.0 | 10.0 | 0.00 | 0.48 | 0.23 | 77 | 1006.0 |
| 20260507192703 | 60 | 212 | 5.0 | 9.0 | 0.00 | 0.48 | 0.23 | 78 | 1006.2 |
| 20260507191803 | 61 | 196 | 3.0 | 10.0 | 0.00 | 0.48 | 0.23 | 77 | 1006.2 |
| 20260507190903 | 62 | 197 | 3.0 | 11.0 | 0.00 | 0.48 | 0.23 | 77 | 1006.3 |
| 20260507190217 | 60 | 205 | 4.0 | 9.0 | 0.00 | 0.48 | 0.23 | 78 | 1006.5 |
| 20260507185403 | 60 | 208 | 4.0 | 11.0 | 0.00 | 0.48 | 0.23 | 76 | 1006.7 |
| 20260507184718 | 60 | 211 | 5.0 | 11.0 | 0.00 | 0.48 | 0.23 | 76 | 1006.6 |
| 20260507184032 | 60 | 217 | 5.0 | 11.0 | 0.00 | 0.48 | 0.23 | 76 | 1006.8 |
| 20260507182703 | 61 | 208 | 4.0 | 11.0 | 0.00 | 0.48 | 0.23 | 74 | 1006.8 |
| 20260507182018 | 61 | 210 | 4.0 | 9.0 | 0.00 | 0.48 | 0.23 | 72 | 1006.8 |
| 20260507180903 | 60 | 211 | 4.0 | 9.0 | 0.00 | 0.48 | 0.23 | 75 | 1006.9 |
| 20260507180216 | 60 | 198 | 4.0 | 10.0 | 0.00 | 0.48 | 0.23 | 74 | 1007.0 |
| 20260507175618 | 60 | 203 | 5.0 | 11.0 | 0.00 | 0.48 | 0.23 | 74 | 1007.1 |
| 20260507174503 | 60 | 215 | 4.0 | 11.0 | 0.00 | 0.48 | 0.23 | 73 | 1007.1 |
| 20260507173817 | 61 | 196 | 4.0 | 9.0 | 0.00 | 0.48 | 0.23 | 70 | 1007.2 |
| 20260507172918 | 63 | 281 | 3.0 | 11.0 | 0.00 | 0.48 | 0.23 | 61 | 1007.1 |
| 20260507171803 | 63 | 312 | 3.0 | 9.0 | 0.00 | 0.48 | 0.23 | 59 | 1007.0 |
| 20260507170903 | 63 | 341 | 4.0 | 10.0 | 0.00 | 0.48 | 0.23 | 57 | 1007.0 |
| 20260507170003 | 62 | 305 | 4.0 | 12.0 | 0.00 | 0.48 | 0.23 | 59 | 1007.3 |
| 20260507165403 | 61 | 290 | 4.0 | 10.0 | 0.00 | 0.48 | 0.23 | 61 | 1007.4 |
| 20260507164503 | 61 | 298 | 4.0 | 10.0 | 0.00 | 0.48 | 0.23 | 61 | 1007.4 |
| 20260507163816 | 61 | 316 | 3.0 | 9.0 | 0.00 | 0.48 | 0.23 | 65 | 1007.4 |
| 20260507162703 | 60 | 295 | 4.0 | 10.0 | 0.00 | 0.48 | 0.23 | 69 | 1007.4 |
| 20260507161803 | 60 | 312 | 4.0 | 11.0 | 0.00 | 0.48 | 0.23 | 71 | 1007.6 |
| 20260507160903 | 60 | 319 | 3.0 | 11.0 | 0.00 | 0.48 | 0.23 | 72 | 1007.5 |
| 20260507160003 | 60 | 315 | 3.0 | 10.0 | 0.00 | 0.48 | 0.23 | 76 | 1007.7 |
| 20260507155403 | 59 | 294 | 3.0 | 10.0 | 0.00 | 0.48 | 0.23 | 79 | 1007.8 |
| 20260507154716 | 58 | 318 | 3.0 | 9.0 | 0.01 | 0.48 | 0.23 | 78 | 1007.7 |
| 20260507153603 | 56 | 339 | 4.0 | 11.0 | 0.01 | 0.48 | 0.23 | 83 | 1007.9 |
| 20260507152703 | 55 | 305 | 3.0 | 7.0 | 0.01 | 0.48 | 0.23 | 85 | 1008.0 |
| 20260507151803 | 54 | 318 | 3.0 | 10.0 | 0.01 | 0.48 | 0.23 | 87 | 1008.0 |
| 20260507150903 | 53 | 312 | 4.0 | 9.0 | 0.01 | 0.48 | 0.23 | 88 | 1007.8 |
| 20260507150003 | 53 | 335 | 4.0 | 10.0 | 0.01 | 0.48 | 0.23 | 90 | 1007.8 |
| 20260507145403 | 52 | 335 | 2.0 | 10.0 | 0.01 | 0.48 | 0.23 | 90 | 1007.7 |
| 20260507144716 | 52 | 328 | 3.0 | 10.0 | 0.00 | 0.47 | 0.22 | 91 | 1008.1 |
| 20260507143603 | 51 | 350 | 3.0 | 10.0 | 0.00 | 0.47 | 0.22 | 91 | 1008.0 |
| 20260507142703 | 51 | 317 | 2.0 | 7.0 | 0.00 | 0.47 | 0.22 | 92 | 1008.1 |
| 20260507141803 | 50 | 284 | 2.0 | 4.0 | 0.00 | 0.47 | 0.22 | 92 | 1008.2 |
| 20260507141118 | 50 | 332 | 3.0 | 9.0 | 0.00 | 0.47 | 0.22 | 92 | 1008.1 |
| 20260507140003 | 50 | 333 | 4.0 | 10.0 | 0.00 | 0.47 | 0.22 | 92 | 1008.2 |
| 20260507135403 | 49 | 338 | 3.0 | 8.0 | 0.00 | 0.47 | 0.22 | 92 | 1008.0 |
| 20260507134503 | 49 | 334 | 2.0 | 8.0 | 0.01 | 0.47 | 0.22 | 92 | 1007.9 |
| 20260507133603 | 49 | 338 | 3.0 | 8.0 | 0.01 | 0.47 | 0.22 | 92 | 1007.5 |
| 20260507132703 | 49 | 340 | 2.0 | 7.0 | 0.01 | 0.47 | 0.22 | 92 | 1007.7 |
| 20260507132018 | 49 | 345 | 2.0 | 7.0 | 0.01 | 0.47 | 0.22 | 92 | 1007.8 |
| 20260507130903 | 49 | 317 | 3.0 | 10.0 | 0.01 | 0.47 | 0.22 | 92 | 1008.0 |
| 20260507130216 | 49 | 316 | 3.0 | 8.0 | 0.01 | 0.47 | 0.22 | 92 | 1008.1 |
| 20260507125403 | 49 | 340 | 3.0 | 9.0 | 0.02 | 0.47 | 0.22 | 92 | 1008.0 |
| 20260507124503 | 50 | 314 | 3.0 | 9.0 | 0.01 | 0.46 | 0.21 | 92 | 1008.2 |
| 20260507123817 | 49 | 337 | 3.0 | 9.0 | 0.01 | 0.46 | 0.21 | 92 | 1007.9 |
| 20260507122703 | 50 | 325 | 3.0 | 10.0 | 0.01 | 0.46 | 0.21 | 92 | 1007.9 |
| 20260507121803 | 50 | 321 | 3.0 | 12.0 | 0.01 | 0.46 | 0.21 | 92 | 1008.0 |
| 20260507121332 | 50 | 332 | 3.0 | 8.0 | 0.02 | 0.46 | 0.21 | 92 | 1007.9 |
| 20260507120004 | 50 | 330 | 3.0 | 8.0 | 0.03 | 0.46 | 0.21 | 92 | 1007.7 |
| 20260507115403 | 50 | 322 | 3.0 | 8.0 | 0.02 | 0.45 | 0.20 | 92 | 1008.0 |
| 20260507114503 | 50 | 312 | 3.0 | 8.0 | 0.02 | 0.45 | 0.20 | 92 | 1008.2 |
| 20260507113603 | 50 | 328 | 4.0 | 10.0 | 0.02 | 0.45 | 0.20 | 92 | 1007.9 |
| 20260507112918 | 50 | 335 | 4.0 | 13.0 | 0.02 | 0.45 | 0.20 | 92 | 1007.3 |
| 20260507112017 | 50 | 351 | 3.0 | 11.0 | 0.03 | 0.45 | 0.20 | 92 | 1007.4 |
| 20260507110903 | 50 | 338 | 4.0 | 10.0 | 0.02 | 0.44 | 0.19 | 92 | 1007.2 |
| 20260507110003 | 50 | 338 | 4.0 | 10.0 | 0.05 | 0.43 | 0.18 | 92 | 1007.6 |
| 20260507105617 | 50 | 341 | 4.0 | 11.0 | 0.07 | 0.43 | 0.18 | 92 | 1007.3 |
| 20260507104504 | 50 | 349 | 5.0 | 15.0 | 0.10 | 0.43 | 0.18 | 92 | 1007.0 |
| 20260507103603 | 50 | 352 | 4.0 | 11.0 | 0.16 | 0.43 | 0.18 | 92 | 1007.0 |
| 20260507102703 | 50 | 347 | 4.0 | 9.0 | 0.17 | 0.43 | 0.18 | 92 | 1006.7 |
| 20260507102017 | 50 | 345 | 5.0 | 11.0 | 0.16 | 0.42 | 0.17 | 92 | 1006.8 |
| 20260507100903 | 51 | 348 | 4.0 | 11.0 | 0.16 | 0.42 | 0.17 | 92 | 1006.8 |
| 20260507100217 | 51 | 348 | 5.0 | 10.0 | 0.13 | 0.39 | 0.14 | 92 | 1006.4 |
| 20260507095617 | 52 | 340 | 4.0 | 10.0 | 0.11 | 0.36 | 0.11 | 92 | 1006.8 |
| 20260507094716 | 54 | 334 | 5.0 | 13.0 | 0.09 | 0.34 | 0.09 | 92 | 1006.2 |
| 20260507094033 | 54 | 328 | 4.0 | 13.0 | 0.05 | 0.30 | 0.05 | 92 | 1006.5 |
| 20260507092703 | 54 | 306 | 1.0 | 4.0 | 0.01 | 0.26 | 0.01 | 92 | 1006.1 |
| 20260507091803 | 54 | 274 | 1.0 | 7.0 | 0.01 | 0.26 | 0.01 | 92 | 1006.1 |
| 20260507090903 | 54 | 279 | 2.0 | 7.0 | 0.01 | 0.26 | 0.01 | 92 | 1006.5 |
| 20260507090217 | 54 | 275 | 3.0 | 9.0 | 0.01 | 0.26 | 0.01 | 92 | 1006.5 |
| 20260507085403 | 54 | 281 | 4.0 | 11.0 | 0.00 | 0.25 | 0.00 | 92 | 1006.9 |
| 20260507084718 | 54 | 262 | 3.0 | 9.0 | 0.00 | 0.25 | 0.00 | 92 | 1006.4 |
| 20260507083817 | 54 | 238 | 3.0 | 8.0 | 0.00 | 0.25 | 0.00 | 92 | 1006.2 |
| 20260507082917 | 54 | 236 | 3.0 | 8.0 | 0.00 | 0.25 | 0.00 | 92 | 1006.0 |
| 20260507082018 | 54 | 236 | 3.0 | 8.0 | 0.00 | 0.25 | 0.00 | 92 | 1005.8 |
| 20260507080903 | 54 | 226 | 3.0 | 13.0 | 0.00 | 0.25 | 0.00 | 92 | 1006.0 |
| 20260507080217 | 54 | 241 | 3.0 | 6.0 | 0.00 | 0.25 | 0.00 | 92 | 1006.0 |
| 20260507075403 | 54 | 235 | 2.0 | 7.0 | 0.00 | 0.25 | 0.00 | 92 | 1006.1 |
| 20260507074503 | 54 | 231 | 4.0 | 10.0 | 0.00 | 0.25 | 0.00 | 92 | 1005.9 |
| 20260507073817 | 54 | 237 | 3.0 | 10.0 | 0.00 | 0.25 | 0.00 | 92 | 1006.2 |
| 20260507072703 | 54 | 217 | 3.0 | 8.0 | 0.00 | 0.25 | 0.00 | 92 | 1006.2 |
| 20260507072018 | 54 | 232 | 4.0 | 8.0 | 0.00 | 0.25 | 0.00 | 92 | 1006.2 |
| 20260507071117 | 54 | 235 | 4.0 | 10.0 | 0.00 | 0.25 | 0.00 | 92 | 1006.6 |
| 20260507070004 | 55 | 236 | 4.0 | 10.0 | 0.00 | 0.25 | 0.00 | 92 | 1006.4 |
| 20260507065618 | 55 | 237 | 4.0 | 10.0 | 0.00 | 0.25 | 0.00 | 92 | 1006.3 |
| 20260507064717 | 55 | 242 | 4.0 | 9.0 | 0.00 | 0.25 | 0.00 | 92 | 1006.2 |
| 20260507063603 | 55 | 223 | 4.0 | 8.0 | 0.00 | 0.25 | 0.00 | 92 | 1006.6 |
| 20260507062918 | 55 | 230 | 3.0 | 8.0 | 0.00 | 0.25 | 0.00 | 92 | 1006.6 |
| 20260507061803 | 56 | 232 | 3.0 | 8.0 | 0.00 | 0.25 | 0.00 | 92 | 1006.6 |
| 20260507060903 | 56 | 236 | 3.0 | 9.0 | 0.00 | 0.25 | 0.00 | 92 | 1006.7 |
| 20260507060003 | 56 | 235 | 3.0 | 8.0 | 0.00 | 0.25 | 0.00 | 92 | 1006.6 |
| 20260507055403 | 56 | 226 | 4.0 | 9.0 | 0.00 | 0.25 | 0.00 | 92 | 1006.7 |
| 20260507054717 | 56 | 225 | 4.0 | 10.0 | 0.00 | 0.25 | 0.00 | 92 | 1007.0 |
| 20260507053603 | 56 | 226 | 4.0 | 12.0 | 0.00 | 0.25 | 0.00 | 92 | 1007.1 |
| 20260507053133 | 56 | 227 | 5.0 | 12.0 | 0.00 | 0.25 | 0.00 | 92 | 1007.2 |
| 20260507051803 | 56 | 232 | 5.0 | 13.0 | 0.00 | 0.25 | 0.00 | 92 | 1007.5 |
| 20260507050903 | 56 | 228 | 4.0 | 10.0 | 0.00 | 0.25 | 0.00 | 92 | 1007.5 |
| 20260507050003 | 56 | 236 | 6.0 | 16.0 | 0.00 | 0.25 | 0.00 | 92 | 1007.4 |
| 20260507045832 | 56 | 237 | 6.0 | 16.0 | 0.00 | 0.25 | 0.00 | 92 | 1007.5 |
| 20260507044503 | 56 | 220 | 6.0 | 13.0 | 0.00 | 0.25 | 0.00 | 92 | 1007.4 |
| 20260507043603 | 56 | 225 | 5.0 | 17.0 | 0.00 | 0.25 | 0.00 | 92 | 1007.4 |
| 20260507042703 | 56 | 221 | 5.0 | 15.0 | 0.00 | 0.25 | 0.00 | 92 | 1007.6 |
| 20260507041803 | 56 | 220 | 6.0 | 17.0 | 0.00 | 0.25 | 0.00 | 92 | 1007.8 |
| 20260507040903 | 56 | 230 | 5.0 | 11.0 | 0.00 | 0.25 | 0.00 | 92 | 1007.7 |
| 20260507040003 | 56 | 220 | 6.0 | 14.0 | 0.00 | 0.25 | 0.00 | 92 | 1007.6 |
| 20260507035403 | 56 | 219 | 6.0 | 14.0 | 0.00 | 0.25 | 0.25 | 92 | 1007.7 |
| 20260507034503 | 56 | 221 | 6.0 | 15.0 | 0.00 | 0.25 | 0.25 | 92 | 1008.0 |
| 20260507033603 | 56 | 223 | 6.0 | 15.0 | 0.00 | 0.25 | 0.25 | 92 | 1008.0 |
| 20260507033132 | 56 | 232 | 6.0 | 15.0 | 0.00 | 0.25 | 0.25 | 92 | 1008.0 |
| 20260507031803 | 56 | 219 | 6.0 | 14.0 | 0.00 | 0.25 | 0.25 | 92 | 1007.7 |
| 20260507031117 | 56 | 221 | 6.0 | 15.0 | 0.00 | 0.25 | 0.25 | 92 | 1007.6 |
| 20260507030217 | 56 | 221 | 6.0 | 13.0 | 0.00 | 0.25 | 0.25 | 92 | 1007.5 |
| 20260507025403 | 56 | 222 | 7.0 | 14.0 | 0.00 | 0.25 | 0.25 | 92 | 1007.7 |
| 20260507024503 | 56 | 217 | 7.0 | 14.0 | 0.00 | 0.25 | 0.25 | 92 | 1008.1 |
| 20260507023603 | 56 | 222 | 6.0 | 14.0 | 0.00 | 0.25 | 0.25 | 92 | 1008.3 |
| 20260507022703 | 56 | 218 | 7.0 | 16.0 | 0.00 | 0.25 | 0.25 | 92 | 1008.5 |
| 20260507021803 | 57 | 217 | 8.0 | 18.0 | 0.00 | 0.25 | 0.25 | 92 | 1008.5 |
| 20260507021117 | 57 | 226 | 8.0 | 16.0 | 0.00 | 0.25 | 0.25 | 92 | 1008.4 |
| 20260507020216 | 56 | 226 | 7.0 | 16.0 | 0.01 | 0.25 | 0.25 | 92 | 1008.4 |
| 20260507015403 | 56 | 219 | 8.0 | 16.0 | 0.01 | 0.25 | 0.25 | 92 | 1008.6 |
| 20260507014503 | 56 | 211 | 6.0 | 14.0 | 0.02 | 0.25 | 0.25 | 92 | 1008.8 |
| 20260507014032 | 56 | 211 | 6.0 | 12.0 | 0.04 | 0.25 | 0.25 | 92 | 1008.8 |
| 20260507012918 | 56 | 213 | 7.0 | 17.0 | 0.10 | 0.25 | 0.25 | 92 | 1008.6 |
| 20260507011803 | 57 | 220 | 6.0 | 15.0 | 0.12 | 0.25 | 0.25 | 92 | 1008.8 |
| 20260507010903 | 57 | 222 | 7.0 | 19.0 | 0.13 | 0.24 | 0.24 | 92 | 1008.8 |
| 20260507010003 | 57 | 213 | 8.0 | 22.0 | 0.13 | 0.24 | 0.24 | 92 | 1008.9 |
| 20260507005403 | 56 | 212 | 7.0 | 22.0 | 0.14 | 0.24 | 0.24 | 92 | 1008.8 |
| 20260507004503 | 56 | 212 | 7.0 | 14.0 | 0.14 | 0.23 | 0.23 | 92 | 1009.0 |
| 20260507003603 | 56 | 210 | 6.0 | 13.0 | 0.09 | 0.17 | 0.18 | 92 | 1008.6 |
| 20260507002703 | 56 | 210 | 6.0 | 18.0 | 0.07 | 0.14 | 0.14 | 92 | 1008.5 |
| 20260507002017 | 56 | 203 | 6.0 | 18.0 | 0.08 | 0.13 | 0.13 | 92 | 1008.6 |
| 20260507000903 | 56 | 198 | 6.0 | 12.0 | 0.09 | 0.11 | 0.11 | 91 | 1008.7 |
| 20260507000003 | 56 | 188 | 5.0 | 14.0 | 0.10 | 0.11 | 0.11 | 91 | 1008.7 |
| 20260506235832 | 56 | 192 | 5.0 | 14.0 | 0.09 | 0.10 | 0.10 | 91 | 1008.9 |
| 20260506234503 | 56 | 205 | 6.0 | 13.0 | 0.09 | 0.09 | 0.09 | 91 | 1009.2 |
| 20260506233818 | 56 | 198 | 6.0 | 13.0 | 0.08 | 0.08 | 0.08 | 91 | 1009.2 |
| 20260506232917 | 56 | 202 | 7.0 | 14.0 | 0.07 | 0.07 | 0.07 | 90 | 1009.3 |
| 20260506231803 | 57 | 209 | 6.0 | 15.0 | 0.05 | 0.05 | 0.05 | 90 | 1009.6 |
| 20260506230903 | 57 | 199 | 7.0 | 14.0 | 0.02 | 0.02 | 0.02 | 90 | 1009.3 |
| 20260506230003 | 57 | 199 | 7.0 | 15.0 | 0.01 | 0.01 | 0.01 | 89 | 1009.5 |
| 20260506225832 | 57 | 200 | 7.0 | 15.0 | 0.01 | 0.01 | 0.01 | 89 | 1009.4 |
| 20260506224503 | 58 | 192 | 8.0 | 16.0 | 0.00 | 0.00 | 0.00 | 88 | 1009.4 |
| 20260506223603 | 58 | 194 | 8.0 | 21.0 | 0.00 | 0.00 | 0.00 | 88 | 1009.3 |
| 20260506222917 | 58 | 189 | 7.0 | 13.0 | 0.00 | 0.00 | 0.00 | 88 | 1009.3 |
| 20260506221803 | 58 | 197 | 7.0 | 16.0 | 0.00 | 0.00 | 0.00 | 88 | 1009.4 |
| 20260506220903 | 58 | 188 | 7.0 | 16.0 | 0.00 | 0.00 | 0.00 | 87 | 1009.6 |
| 20260506220003 | 58 | 194 | 6.0 | 15.0 | 0.00 | 0.00 | 0.00 | 87 | 1009.7 |
| 20260506215617 | 58 | 194 | 6.0 | 19.0 | 0.00 | 0.00 | 0.00 | 87 | 1009.7 |
| 20260506214503 | 58 | 189 | 7.0 | 17.0 | 0.00 | 0.00 | 0.00 | 87 | 1009.6 |
| 20260506213817 | 58 | 192 | 8.0 | 16.0 | 0.00 | 0.00 | 0.00 | 87 | 1009.8 |
| 20260506212703 | 58 | 195 | 9.0 | 15.0 | 0.00 | 0.00 | 0.00 | 86 | 1009.7 |
| 20260506211803 | 58 | 192 | 8.0 | 17.0 | 0.00 | 0.00 | 0.00 | 87 | 1009.8 |
| 20260506211332 | 58 | 194 | 8.0 | 16.0 | 0.00 | 0.00 | 0.00 | 86 | 1009.8 |
| 20260506210217 | 58 | 192 | 8.0 | 19.0 | 0.00 | 0.00 | 0.00 | 86 | 1009.9 |
| 20260506205403 | 59 | 187 | 6.0 | 16.0 | 0.00 | 0.00 | 0.00 | 86 | 1010.0 |
| 20260506204717 | 59 | 185 | 6.0 | 13.0 | 0.00 | 0.00 | 0.00 | 85 | 1010.1 |
| 20260506204032 | 60 | 188 | 6.0 | 15.0 | 0.00 | 0.00 | 0.00 | 84 | 1010.2 |